Year,Month,Day,Hour,Minute,Value (Times are PST for temperature in C)
2013,08,09,00,00,14.90
2013,08,09,00,01,14.80
2013,08,09,00,02,14.80
2013,08,09,00,03,14.80
2013,08,09,00,04,14.80
2013,08,09,00,05,14.80
2013,08,09,00,06,14.80
2013,08,09,00,07,14.80
2013,08,09,00,08,14.80
2013,08,09,00,09,14.80
2013,08,09,00,10,14.80
2013,08,09,00,11,14.80
2013,08,09,00,12,14.80
2013,08,09,00,13,14.80
2013,08,09,00,14,14.80
2013,08,09,00,15,14.80
2013,08,09,00,16,14.80
2013,08,09,00,17,14.80
2013,08,09,00,18,14.80
2013,08,09,00,19,14.80
2013,08,09,00,20,14.80
2013,08,09,00,21,14.80
2013,08,09,00,22,14.80
2013,08,09,00,23,14.80
2013,08,09,00,24,14.80
2013,08,09,00,25,14.80
2013,08,09,00,26,14.80
2013,08,09,00,27,14.80
2013,08,09,00,28,14.80
2013,08,09,00,29,14.80
2013,08,09,00,30,14.80
2013,08,09,00,31,14.80
2013,08,09,00,32,14.80
2013,08,09,00,33,14.80
2013,08,09,00,34,14.80
2013,08,09,00,35,14.80
2013,08,09,00,36,14.80
2013,08,09,00,37,14.80
2013,08,09,00,38,14.80
2013,08,09,00,39,14.80
2013,08,09,00,40,14.80
2013,08,09,00,41,14.90
2013,08,09,00,42,14.90
2013,08,09,00,43,14.90
2013,08,09,00,44,14.90
2013,08,09,00,45,14.90
2013,08,09,00,46,14.90
2013,08,09,00,47,14.80
2013,08,09,00,48,14.80
2013,08,09,00,49,14.80
2013,08,09,00,50,14.80
2013,08,09,00,51,14.70
2013,08,09,00,52,14.60
2013,08,09,00,53,14.60
2013,08,09,00,54,14.50
2013,08,09,00,55,14.50
2013,08,09,00,56,14.50
2013,08,09,00,57,14.40
2013,08,09,00,58,14.40
2013,08,09,00,59,14.30
2013,08,09,01,00,14.20
2013,08,09,01,01,14.20
2013,08,09,01,02,14.20
2013,08,09,01,03,14.10
2013,08,09,01,04,14.10
2013,08,09,01,05,14.00
2013,08,09,01,06,14.00
2013,08,09,01,07,14.00
2013,08,09,01,08,14.00
2013,08,09,01,09,14.00
2013,08,09,01,10,13.90
2013,08,09,01,11,13.90
2013,08,09,01,12,13.90
2013,08,09,01,13,13.90
2013,08,09,01,14,13.90
2013,08,09,01,15,13.90
2013,08,09,01,16,13.90
2013,08,09,01,17,13.90
2013,08,09,01,18,13.80
2013,08,09,01,19,13.80
2013,08,09,01,20,13.80
2013,08,09,01,21,13.80
2013,08,09,01,22,13.80
2013,08,09,01,23,13.80
2013,08,09,01,24,13.80
2013,08,09,01,25,13.80
2013,08,09,01,26,13.70
2013,08,09,01,27,13.70
2013,08,09,01,28,13.70
2013,08,09,01,29,13.70
2013,08,09,01,30,13.70
2013,08,09,01,31,13.70
2013,08,09,01,32,13.70
2013,08,09,01,33,13.70
2013,08,09,01,34,13.70
2013,08,09,01,35,13.70
2013,08,09,01,36,13.70
2013,08,09,01,37,13.70
2013,08,09,01,38,13.70
2013,08,09,01,39,13.70
2013,08,09,01,40,13.70
2013,08,09,01,41,13.70
2013,08,09,01,42,13.70
2013,08,09,01,43,13.70
2013,08,09,01,44,13.70
2013,08,09,01,45,13.70
2013,08,09,01,46,13.70
2013,08,09,01,47,13.70
2013,08,09,01,48,13.70
2013,08,09,01,49,13.70
2013,08,09,01,50,13.70
2013,08,09,01,51,13.70
2013,08,09,01,52,13.70
2013,08,09,01,53,13.70
2013,08,09,01,54,13.70
2013,08,09,01,55,13.70
2013,08,09,01,56,13.70
2013,08,09,01,57,13.70
2013,08,09,01,58,13.70
2013,08,09,01,59,13.70
2013,08,09,02,00,13.70
2013,08,09,02,01,13.70
2013,08,09,02,02,13.60
2013,08,09,02,03,13.60
2013,08,09,02,04,13.60
2013,08,09,02,05,13.60
2013,08,09,02,06,13.60
2013,08,09,02,07,13.60
2013,08,09,02,08,13.60
2013,08,09,02,09,13.60
2013,08,09,02,10,13.60
2013,08,09,02,11,13.60
2013,08,09,02,12,13.60
2013,08,09,02,13,13.60
2013,08,09,02,14,13.60
2013,08,09,02,15,13.60
2013,08,09,02,16,13.60
2013,08,09,02,17,13.60
2013,08,09,02,18,13.60
2013,08,09,02,19,13.60
2013,08,09,02,20,13.60
2013,08,09,02,21,13.60
2013,08,09,02,22,13.60
2013,08,09,02,23,13.60
2013,08,09,02,24,13.50
2013,08,09,02,25,13.50
2013,08,09,02,26,13.50
2013,08,09,02,27,13.50
2013,08,09,02,28,13.50
2013,08,09,02,29,13.50
2013,08,09,02,30,13.50
2013,08,09,02,31,13.40
2013,08,09,02,32,13.40
2013,08,09,02,33,13.40
2013,08,09,02,34,13.40
2013,08,09,02,35,13.40
2013,08,09,02,36,13.40
2013,08,09,02,37,13.40
2013,08,09,02,38,13.40
2013,08,09,02,39,13.30
2013,08,09,02,40,13.30
2013,08,09,02,41,13.30
2013,08,09,02,42,13.30
2013,08,09,02,43,13.30
2013,08,09,02,44,13.30
2013,08,09,02,45,13.30
2013,08,09,02,46,13.30
2013,08,09,02,47,13.30
2013,08,09,02,48,13.20
2013,08,09,02,49,13.20
2013,08,09,02,50,13.20
2013,08,09,02,51,13.20
2013,08,09,02,52,13.20
2013,08,09,02,53,13.10
2013,08,09,02,54,13.10
2013,08,09,02,55,13.10
2013,08,09,02,56,13.10
2013,08,09,02,57,13.10
2013,08,09,02,58,13.00
2013,08,09,02,59,13.00
2013,08,09,03,00,13.00
2013,08,09,03,01,13.00
2013,08,09,03,02,13.00
2013,08,09,03,03,13.00
2013,08,09,03,04,13.00
2013,08,09,03,05,13.00
2013,08,09,03,06,13.00
2013,08,09,03,07,13.00
2013,08,09,03,08,13.00
2013,08,09,03,09,13.00
2013,08,09,03,10,12.90
2013,08,09,03,11,12.90
2013,08,09,03,12,12.90
2013,08,09,03,13,12.90
2013,08,09,03,14,12.90
2013,08,09,03,15,12.90
2013,08,09,03,16,12.90
2013,08,09,03,17,12.80
2013,08,09,03,18,12.80
2013,08,09,03,19,12.80
2013,08,09,03,20,12.80
2013,08,09,03,21,12.80
2013,08,09,03,22,12.80
2013,08,09,03,23,12.80
2013,08,09,03,24,12.80
2013,08,09,03,25,12.80
2013,08,09,03,26,12.80
2013,08,09,03,27,12.80
2013,08,09,03,28,12.70
2013,08,09,03,29,12.70
2013,08,09,03,30,12.70
2013,08,09,03,31,12.70
2013,08,09,03,32,12.70
2013,08,09,03,33,12.70
2013,08,09,03,34,12.60
2013,08,09,03,35,12.60
2013,08,09,03,36,12.60
2013,08,09,03,37,12.60
2013,08,09,03,38,12.60
2013,08,09,03,39,12.60
2013,08,09,03,40,12.60
2013,08,09,03,41,12.60
2013,08,09,03,42,12.60
2013,08,09,03,43,12.50
2013,08,09,03,44,12.50
2013,08,09,03,45,12.50
2013,08,09,03,46,12.50
2013,08,09,03,47,12.50
2013,08,09,03,48,12.50
2013,08,09,03,49,12.50
2013,08,09,03,50,12.40
2013,08,09,03,51,12.40
2013,08,09,03,52,12.40
2013,08,09,03,53,12.40
2013,08,09,03,54,12.40
2013,08,09,03,55,12.40
2013,08,09,03,56,12.40
2013,08,09,03,57,12.40
2013,08,09,03,58,12.40
2013,08,09,03,59,12.40
2013,08,09,04,00,12.40
2013,08,09,04,01,12.40
2013,08,09,04,02,12.40
2013,08,09,04,03,12.40
2013,08,09,04,04,12.40
2013,08,09,04,05,12.40
2013,08,09,04,06,12.40
2013,08,09,04,07,12.30
2013,08,09,04,08,12.30
2013,08,09,04,09,12.30
2013,08,09,04,10,12.30
2013,08,09,04,11,12.30
2013,08,09,04,12,12.30
2013,08,09,04,13,12.30
2013,08,09,04,14,12.30
2013,08,09,04,15,12.30
2013,08,09,04,16,12.30
2013,08,09,04,17,12.30
2013,08,09,04,18,12.30
2013,08,09,04,19,12.30
2013,08,09,04,20,12.30
2013,08,09,04,21,12.30
2013,08,09,04,22,12.30
2013,08,09,04,23,12.30
2013,08,09,04,24,12.30
2013,08,09,04,25,12.30
2013,08,09,04,26,12.20
2013,08,09,04,27,12.20
2013,08,09,04,28,12.20
2013,08,09,04,29,12.20
2013,08,09,04,30,12.20
2013,08,09,04,31,12.20
2013,08,09,04,32,12.20
2013,08,09,04,33,12.30
2013,08,09,04,34,12.30
2013,08,09,04,35,12.30
2013,08,09,04,36,12.30
2013,08,09,04,37,12.20
2013,08,09,04,38,12.20
2013,08,09,04,39,12.20
2013,08,09,04,40,12.20
2013,08,09,04,41,12.20
2013,08,09,04,42,12.20
2013,08,09,04,43,12.20
2013,08,09,04,44,12.20
2013,08,09,04,45,12.20
2013,08,09,04,46,12.20
2013,08,09,04,47,12.20
2013,08,09,04,48,12.10
2013,08,09,04,49,12.10
2013,08,09,04,50,12.10
2013,08,09,04,51,12.10
2013,08,09,04,52,12.10
2013,08,09,04,53,12.10
2013,08,09,04,54,12.10
2013,08,09,04,55,12.00
2013,08,09,04,56,12.00
2013,08,09,04,57,12.00
2013,08,09,04,58,12.00
2013,08,09,04,59,12.00
2013,08,09,05,00,12.00
2013,08,09,05,01,12.00
2013,08,09,05,02,12.00
2013,08,09,05,03,12.00
2013,08,09,05,04,11.90
2013,08,09,05,05,11.90
2013,08,09,05,06,11.90
2013,08,09,05,07,11.90
2013,08,09,05,08,11.90
2013,08,09,05,09,11.90
2013,08,09,05,10,11.90
2013,08,09,05,11,11.90
2013,08,09,05,12,11.90
2013,08,09,05,13,11.90
2013,08,09,05,14,11.90
2013,08,09,05,15,11.80
2013,08,09,05,16,11.80
2013,08,09,05,17,11.80
2013,08,09,05,18,11.80
2013,08,09,05,19,11.80
2013,08,09,05,20,11.80
2013,08,09,05,21,11.80
2013,08,09,05,22,11.80
2013,08,09,05,23,11.80
2013,08,09,05,24,11.80
2013,08,09,05,25,11.80
2013,08,09,05,26,11.80
2013,08,09,05,27,11.80
2013,08,09,05,28,11.80
2013,08,09,05,29,11.80
2013,08,09,05,30,11.80
2013,08,09,05,31,11.80
2013,08,09,05,32,11.80
2013,08,09,05,33,11.80
2013,08,09,05,34,11.80
2013,08,09,05,35,11.80
2013,08,09,05,36,11.80
2013,08,09,05,37,11.80
2013,08,09,05,38,11.80
2013,08,09,05,39,11.80
2013,08,09,05,40,11.80
2013,08,09,05,41,11.80
2013,08,09,05,42,11.80
2013,08,09,05,43,11.90
2013,08,09,05,44,11.90
2013,08,09,05,45,11.90
2013,08,09,05,46,11.90
2013,08,09,05,47,11.90
2013,08,09,05,48,11.90
2013,08,09,05,49,11.90
2013,08,09,05,50,11.90
2013,08,09,05,51,11.80
2013,08,09,05,52,11.80
2013,08,09,05,53,11.80
2013,08,09,05,54,11.80
2013,08,09,05,55,11.80
2013,08,09,05,56,11.80
2013,08,09,05,57,11.80
2013,08,09,05,58,11.80
2013,08,09,05,59,11.80
2013,08,09,06,00,11.80
2013,08,09,06,01,11.80
2013,08,09,06,02,11.80
2013,08,09,06,03,11.80
2013,08,09,06,04,11.80
2013,08,09,06,05,11.80
2013,08,09,06,06,11.80
2013,08,09,06,07,11.80
2013,08,09,06,08,11.80
2013,08,09,06,09,11.80
2013,08,09,06,10,11.80
2013,08,09,06,11,11.80
2013,08,09,06,12,11.80
2013,08,09,06,13,11.80
2013,08,09,06,14,11.80
2013,08,09,06,15,11.80
2013,08,09,06,16,11.80
2013,08,09,06,17,11.80
2013,08,09,06,18,11.80
2013,08,09,06,19,11.80
2013,08,09,06,20,11.80
2013,08,09,06,21,11.90
2013,08,09,06,22,11.90
2013,08,09,06,23,11.90
2013,08,09,06,24,11.90
2013,08,09,06,25,11.90
2013,08,09,06,26,11.90
2013,08,09,06,27,11.90
2013,08,09,06,28,11.90
2013,08,09,06,29,11.90
2013,08,09,06,30,11.90
2013,08,09,06,31,12.00
2013,08,09,06,32,12.00
2013,08,09,06,33,12.00
2013,08,09,06,34,12.00
2013,08,09,06,35,12.00
2013,08,09,06,36,12.00
2013,08,09,06,37,12.00
2013,08,09,06,38,12.00
2013,08,09,06,39,12.00
2013,08,09,06,40,12.00
2013,08,09,06,41,12.00
2013,08,09,06,42,12.00
2013,08,09,06,43,12.00
2013,08,09,06,44,12.00
2013,08,09,06,45,12.00
2013,08,09,06,46,12.00
2013,08,09,06,47,12.10
2013,08,09,06,48,12.10
2013,08,09,06,49,12.10
2013,08,09,06,50,12.10
2013,08,09,06,51,12.10
2013,08,09,06,52,12.10
2013,08,09,06,53,12.10
2013,08,09,06,54,12.10
2013,08,09,06,55,12.10
2013,08,09,06,56,12.10
2013,08,09,06,57,12.10
2013,08,09,06,58,12.10
2013,08,09,06,59,12.10
2013,08,09,07,00,12.10
2013,08,09,07,01,12.10
2013,08,09,07,02,12.10
2013,08,09,07,03,12.10
2013,08,09,07,04,12.10
2013,08,09,07,05,12.10
2013,08,09,07,06,12.10
2013,08,09,07,07,12.10
2013,08,09,07,08,12.10
2013,08,09,07,09,12.10
2013,08,09,07,10,12.20
2013,08,09,07,11,12.20
2013,08,09,07,12,12.30
2013,08,09,07,13,12.30
2013,08,09,07,14,12.30
2013,08,09,07,15,12.40
2013,08,09,07,16,12.40
2013,08,09,07,17,12.50
2013,08,09,07,18,12.50
2013,08,09,07,19,12.60
2013,08,09,07,20,12.60
2013,08,09,07,21,12.60
2013,08,09,07,22,12.70
2013,08,09,07,23,12.70
2013,08,09,07,24,12.80
2013,08,09,07,25,12.80
2013,08,09,07,26,12.80
2013,08,09,07,27,12.80
2013,08,09,07,28,12.80
2013,08,09,07,29,12.80
2013,08,09,07,30,12.80
2013,08,09,07,31,12.80
2013,08,09,07,32,12.80
2013,08,09,07,33,12.80
2013,08,09,07,34,12.80
2013,08,09,07,35,12.80
2013,08,09,07,36,12.80
2013,08,09,07,37,12.80
2013,08,09,07,38,12.80
2013,08,09,07,39,12.80
2013,08,09,07,40,12.80
2013,08,09,07,41,12.70
2013,08,09,07,42,12.70
2013,08,09,07,43,12.70
2013,08,09,07,44,12.70
2013,08,09,07,45,12.70
2013,08,09,07,46,12.70
2013,08,09,07,47,12.70
2013,08,09,07,48,12.70
2013,08,09,07,49,12.80
2013,08,09,07,50,12.80
2013,08,09,07,51,12.80
2013,08,09,07,52,12.90
2013,08,09,07,53,13.00
2013,08,09,07,54,13.10
2013,08,09,07,55,13.20
2013,08,09,07,56,13.20
2013,08,09,07,57,13.30
2013,08,09,07,58,13.40
2013,08,09,07,59,13.40
2013,08,09,08,00,13.50
2013,08,09,08,01,13.60
2013,08,09,08,02,13.60
2013,08,09,08,03,13.70
2013,08,09,08,04,13.70
2013,08,09,08,05,13.80
2013,08,09,08,06,13.90
2013,08,09,08,07,14.00
2013,08,09,08,08,14.10
2013,08,09,08,09,14.20
2013,08,09,08,10,14.20
2013,08,09,08,11,14.20
2013,08,09,08,12,14.30
2013,08,09,08,13,14.40
2013,08,09,08,14,14.40
2013,08,09,08,15,14.50
2013,08,09,08,16,14.60
2013,08,09,08,17,14.60
2013,08,09,08,18,14.60
2013,08,09,08,19,14.50
2013,08,09,08,20,14.40
2013,08,09,08,21,14.30
2013,08,09,08,22,14.20
2013,08,09,08,23,14.20
2013,08,09,08,24,14.10
2013,08,09,08,25,14.10
2013,08,09,08,26,14.20
2013,08,09,08,27,14.20
2013,08,09,08,28,14.30
2013,08,09,08,29,14.30
2013,08,09,08,30,14.40
2013,08,09,08,31,14.40
2013,08,09,08,32,14.40
2013,08,09,08,33,14.40
2013,08,09,08,34,14.50
2013,08,09,08,35,14.40
2013,08,09,08,36,14.30
2013,08,09,08,37,14.20
2013,08,09,08,38,14.20
2013,08,09,08,39,14.10
2013,08,09,08,40,14.20
2013,08,09,08,41,14.20
2013,08,09,08,42,14.20
2013,08,09,08,43,14.30
2013,08,09,08,44,14.40
2013,08,09,08,45,14.60
2013,08,09,08,46,14.70
2013,08,09,08,47,14.80
2013,08,09,08,48,14.90
2013,08,09,08,49,15.00
2013,08,09,08,50,15.10
2013,08,09,08,51,15.20
2013,08,09,08,52,15.30
2013,08,09,08,53,15.40
2013,08,09,08,54,15.50
2013,08,09,08,55,15.60
2013,08,09,08,56,15.60
2013,08,09,08,57,15.70
2013,08,09,08,58,15.80
2013,08,09,08,59,15.90
2013,08,09,09,00,16.10
2013,08,09,09,01,16.30
2013,08,09,09,02,16.50
2013,08,09,09,03,16.70
2013,08,09,09,04,16.80
2013,08,09,09,05,17.00
2013,08,09,09,06,17.20
2013,08,09,09,07,17.30
2013,08,09,09,08,17.40
2013,08,09,09,09,17.40
2013,08,09,09,10,17.40
2013,08,09,09,11,17.30
2013,08,09,09,12,17.30
2013,08,09,09,13,17.20
2013,08,09,09,14,17.10
2013,08,09,09,15,16.80
2013,08,09,09,16,16.50
2013,08,09,09,17,16.20
2013,08,09,09,18,16.00
2013,08,09,09,19,15.80
2013,08,09,09,20,15.80
2013,08,09,09,21,15.60
2013,08,09,09,22,15.30
2013,08,09,09,23,15.00
2013,08,09,09,24,14.70
2013,08,09,09,25,14.60
2013,08,09,09,26,14.30
2013,08,09,09,27,14.10
2013,08,09,09,28,13.90
2013,08,09,09,29,13.90
2013,08,09,09,30,13.90
2013,08,09,09,31,13.90
2013,08,09,09,32,13.90
2013,08,09,09,33,13.90
2013,08,09,09,34,13.90
2013,08,09,09,35,13.90
2013,08,09,09,36,13.90
2013,08,09,09,37,13.90
2013,08,09,09,38,14.00
2013,08,09,09,39,13.80
2013,08,09,09,40,13.70
2013,08,09,09,41,13.60
2013,08,09,09,42,13.60
2013,08,09,09,43,13.50
2013,08,09,09,44,13.50
2013,08,09,09,45,13.40
2013,08,09,09,46,13.40
2013,08,09,09,47,13.40
2013,08,09,09,48,13.40
2013,08,09,09,49,13.60
2013,08,09,09,50,13.60
2013,08,09,09,51,13.70
2013,08,09,09,52,13.80
2013,08,09,09,53,13.80
2013,08,09,09,54,13.70
2013,08,09,09,55,13.70
2013,08,09,09,56,13.80
2013,08,09,09,57,13.90
2013,08,09,09,58,14.00
2013,08,09,09,59,14.20
2013,08,09,10,00,14.30
2013,08,09,10,01,14.40
2013,08,09,10,02,14.50
2013,08,09,10,03,14.60
2013,08,09,10,04,14.80
2013,08,09,10,05,15.00
2013,08,09,10,06,15.10
2013,08,09,10,07,15.30
2013,08,09,10,08,15.40
2013,08,09,10,09,15.50
2013,08,09,10,10,15.50
2013,08,09,10,11,15.60
2013,08,09,10,12,15.80
2013,08,09,10,13,16.00
2013,08,09,10,14,16.20
2013,08,09,10,15,16.30
2013,08,09,10,16,16.60
2013,08,09,10,17,16.80
2013,08,09,10,18,16.90
2013,08,09,10,19,17.00
2013,08,09,10,20,17.10
2013,08,09,10,21,17.20
2013,08,09,10,22,17.30
2013,08,09,10,23,17.40
2013,08,09,10,24,17.50
2013,08,09,10,25,17.80
2013,08,09,10,26,18.00
2013,08,09,10,27,18.20
2013,08,09,10,28,18.40
2013,08,09,10,29,18.50
2013,08,09,10,30,18.50
2013,08,09,10,31,18.50
2013,08,09,10,32,18.60
2013,08,09,10,33,18.60
2013,08,09,10,34,18.70
2013,08,09,10,35,18.60
2013,08,09,10,36,18.50
2013,08,09,10,37,18.20
2013,08,09,10,38,17.90
2013,08,09,10,39,17.50
2013,08,09,10,40,17.20
2013,08,09,10,41,17.00
2013,08,09,10,42,16.80
2013,08,09,10,43,16.80
2013,08,09,10,44,16.70
2013,08,09,10,45,16.60
2013,08,09,10,46,16.50
2013,08,09,10,47,16.40
2013,08,09,10,48,16.40
2013,08,09,10,49,16.30
2013,08,09,10,50,16.20
2013,08,09,10,51,16.10
2013,08,09,10,52,16.10
2013,08,09,10,53,15.90
2013,08,09,10,54,15.80
2013,08,09,10,55,15.70
2013,08,09,10,56,15.60
2013,08,09,10,57,15.50
2013,08,09,10,58,15.40
2013,08,09,10,59,15.40
2013,08,09,11,00,15.40
2013,08,09,11,01,15.30
2013,08,09,11,02,15.50
2013,08,09,11,03,15.60
2013,08,09,11,04,15.60
2013,08,09,11,05,15.70
2013,08,09,11,06,15.70
2013,08,09,11,07,15.60
2013,08,09,11,08,15.30
2013,08,09,11,09,15.00
2013,08,09,11,10,14.80
2013,08,09,11,11,14.70
2013,08,09,11,12,14.80
2013,08,09,11,13,14.90
2013,08,09,11,14,15.00
2013,08,09,11,15,15.10
2013,08,09,11,16,15.20
2013,08,09,11,17,15.20
2013,08,09,11,18,15.10
2013,08,09,11,19,15.20
2013,08,09,11,20,15.10
2013,08,09,11,21,15.10
2013,08,09,11,22,15.20
2013,08,09,11,23,15.20
2013,08,09,11,24,15.20
2013,08,09,11,25,15.30
2013,08,09,11,26,15.30
2013,08,09,11,27,15.50
2013,08,09,11,28,15.60
2013,08,09,11,29,15.80
2013,08,09,11,30,16.10
2013,08,09,11,31,16.30
2013,08,09,11,32,16.50
2013,08,09,11,33,16.70
2013,08,09,11,34,16.90
2013,08,09,11,35,17.10
2013,08,09,11,36,17.30
2013,08,09,11,37,17.40
2013,08,09,11,38,17.60
2013,08,09,11,39,17.70
2013,08,09,11,40,17.90
2013,08,09,11,41,18.10
2013,08,09,11,42,18.30
2013,08,09,11,43,18.50
2013,08,09,11,44,18.60
2013,08,09,11,45,18.90
2013,08,09,11,46,19.10
2013,08,09,11,47,19.40
2013,08,09,11,48,19.60
2013,08,09,11,49,19.70
2013,08,09,11,50,19.80
2013,08,09,11,51,19.90
2013,08,09,11,52,19.90
2013,08,09,11,53,19.80
2013,08,09,11,54,19.70
2013,08,09,11,55,19.60
2013,08,09,11,56,19.40
2013,08,09,11,57,19.30
2013,08,09,11,58,19.10
2013,08,09,11,59,19.00
2013,08,09,12,00,18.70
2013,08,09,12,01,18.70
2013,08,09,12,02,18.60
2013,08,09,12,03,18.50
2013,08,09,12,04,18.40
2013,08,09,12,05,18.30
2013,08,09,12,06,18.30
2013,08,09,12,07,18.40
2013,08,09,12,08,18.50
2013,08,09,12,09,18.80
2013,08,09,12,10,19.00
2013,08,09,12,11,19.30
2013,08,09,12,12,19.50
2013,08,09,12,13,19.70
2013,08,09,12,14,19.60
2013,08,09,12,15,19.50
2013,08,09,12,16,19.50
2013,08,09,12,17,19.60
2013,08,09,12,18,19.70
2013,08,09,12,19,19.90
2013,08,09,12,20,20.10
2013,08,09,12,21,20.30
2013,08,09,12,22,20.60
2013,08,09,12,23,20.80
2013,08,09,12,24,21.00
2013,08,09,12,25,21.20
2013,08,09,12,26,21.40
2013,08,09,12,27,21.40
2013,08,09,12,28,21.30
2013,08,09,12,29,21.20
2013,08,09,12,30,21.10
2013,08,09,12,31,21.00
2013,08,09,12,32,20.90
2013,08,09,12,33,20.80
2013,08,09,12,34,20.70
2013,08,09,12,35,20.60
2013,08,09,12,36,20.50
2013,08,09,12,37,20.60
2013,08,09,12,38,20.60
2013,08,09,12,39,20.60
2013,08,09,12,40,20.60
2013,08,09,12,41,20.60
2013,08,09,12,42,20.60
2013,08,09,12,43,20.60
2013,08,09,12,44,20.60
2013,08,09,12,45,20.60
2013,08,09,12,46,20.70
2013,08,09,12,47,20.70
2013,08,09,12,48,20.70
2013,08,09,12,49,20.90
2013,08,09,12,50,21.10
2013,08,09,12,51,21.30
2013,08,09,12,52,21.40
2013,08,09,12,53,21.50
2013,08,09,12,54,21.70
2013,08,09,12,55,21.80
2013,08,09,12,56,22.00
2013,08,09,12,57,22.00
2013,08,09,12,58,22.20
2013,08,09,12,59,22.20
2013,08,09,13,00,22.10
2013,08,09,13,01,22.00
2013,08,09,13,02,21.80
2013,08,09,13,03,21.60
2013,08,09,13,04,21.50
2013,08,09,13,05,21.40
2013,08,09,13,06,21.40
2013,08,09,13,07,21.50
2013,08,09,13,08,21.60
2013,08,09,13,09,21.50
2013,08,09,13,10,21.40
2013,08,09,13,11,21.30
2013,08,09,13,12,21.10
2013,08,09,13,13,20.90
2013,08,09,13,14,20.80
2013,08,09,13,15,20.70
2013,08,09,13,16,20.60
2013,08,09,13,17,20.50
2013,08,09,13,18,20.40
2013,08,09,13,19,20.40
2013,08,09,13,20,20.40
2013,08,09,13,21,20.50
2013,08,09,13,22,20.70
2013,08,09,13,23,20.80
2013,08,09,13,24,20.70
2013,08,09,13,25,20.60
2013,08,09,13,26,20.50
2013,08,09,13,27,20.50
2013,08,09,13,28,20.50
2013,08,09,13,29,20.50
2013,08,09,13,30,20.60
2013,08,09,13,31,20.60
2013,08,09,13,32,20.60
2013,08,09,13,33,20.60
2013,08,09,13,34,20.50
2013,08,09,13,35,20.50
2013,08,09,13,36,20.50
2013,08,09,13,37,20.20
2013,08,09,13,38,19.70
2013,08,09,13,39,19.30
2013,08,09,13,40,19.10
2013,08,09,13,41,19.10
2013,08,09,13,42,19.10
2013,08,09,13,43,19.20
2013,08,09,13,44,19.40
2013,08,09,13,45,19.60
2013,08,09,13,46,19.60
2013,08,09,13,47,19.70
2013,08,09,13,48,19.80
2013,08,09,13,49,19.80
2013,08,09,13,50,19.80
2013,08,09,13,51,19.80
2013,08,09,13,52,19.80
2013,08,09,13,53,19.80
2013,08,09,13,54,19.70
2013,08,09,13,55,19.80
2013,08,09,13,56,19.90
2013,08,09,13,57,19.90
2013,08,09,13,58,20.00
2013,08,09,13,59,20.10
2013,08,09,14,00,20.10
2013,08,09,14,01,20.20
2013,08,09,14,02,20.30
2013,08,09,14,03,20.40
2013,08,09,14,04,20.40
2013,08,09,14,05,20.30
2013,08,09,14,06,20.30
2013,08,09,14,07,20.20
2013,08,09,14,08,20.20
2013,08,09,14,09,20.10
2013,08,09,14,10,20.20
2013,08,09,14,11,20.20
2013,08,09,14,12,20.20
2013,08,09,14,13,20.20
2013,08,09,14,14,20.30
2013,08,09,14,15,20.40
2013,08,09,14,16,20.50
2013,08,09,14,17,20.60
2013,08,09,14,18,20.70
2013,08,09,14,19,20.80
2013,08,09,14,20,20.90
2013,08,09,14,21,21.10
2013,08,09,14,22,21.30
2013,08,09,14,23,21.50
2013,08,09,14,24,21.70
2013,08,09,14,25,21.80
2013,08,09,14,26,22.00
2013,08,09,14,27,22.10
2013,08,09,14,28,22.10
2013,08,09,14,29,22.10
2013,08,09,14,30,22.10
2013,08,09,14,31,22.00
2013,08,09,14,32,21.90
2013,08,09,14,33,21.90
2013,08,09,14,34,21.90
2013,08,09,14,35,21.90
2013,08,09,14,36,21.90
2013,08,09,14,37,22.00
2013,08,09,14,38,22.10
2013,08,09,14,39,22.20
2013,08,09,14,40,22.30
2013,08,09,14,41,22.40
2013,08,09,14,42,22.40
2013,08,09,14,43,22.50
2013,08,09,14,44,22.50
2013,08,09,14,45,22.50
2013,08,09,14,46,22.50
2013,08,09,14,47,22.50
2013,08,09,14,48,22.60
2013,08,09,14,49,22.60
2013,08,09,14,50,22.60
2013,08,09,14,51,22.70
2013,08,09,14,52,22.70
2013,08,09,14,53,22.60
2013,08,09,14,54,22.60
2013,08,09,14,55,22.60
2013,08,09,14,56,22.50
2013,08,09,14,57,22.50
2013,08,09,14,58,22.50
2013,08,09,14,59,22.50
2013,08,09,15,00,22.50
2013,08,09,15,01,22.50
2013,08,09,15,02,22.50
2013,08,09,15,03,22.60
2013,08,09,15,04,22.70
2013,08,09,15,05,22.80
2013,08,09,15,06,22.80
2013,08,09,15,07,22.80
2013,08,09,15,08,22.90
2013,08,09,15,09,23.00
2013,08,09,15,10,23.10
2013,08,09,15,11,23.10
2013,08,09,15,12,23.20
2013,08,09,15,13,23.20
2013,08,09,15,14,23.20
2013,08,09,15,15,23.20
2013,08,09,15,16,23.10
2013,08,09,15,17,22.90
2013,08,09,15,18,22.90
2013,08,09,15,19,22.90
2013,08,09,15,20,22.90
2013,08,09,15,21,22.90
2013,08,09,15,22,22.90
2013,08,09,15,23,22.90
2013,08,09,15,24,23.00
2013,08,09,15,25,23.00
2013,08,09,15,26,22.90
2013,08,09,15,27,22.90
2013,08,09,15,28,22.80
2013,08,09,15,29,22.80
2013,08,09,15,30,22.80
2013,08,09,15,31,22.90
2013,08,09,15,32,22.90
2013,08,09,15,33,23.00
2013,08,09,15,34,23.10
2013,08,09,15,35,23.20
2013,08,09,15,36,23.20
2013,08,09,15,37,23.20
2013,08,09,15,38,23.30
2013,08,09,15,39,23.20
2013,08,09,15,40,23.30
2013,08,09,15,41,23.30
2013,08,09,15,42,23.30
2013,08,09,15,43,23.20
2013,08,09,15,44,23.20
2013,08,09,15,45,23.10
2013,08,09,15,46,23.10
2013,08,09,15,47,23.10
2013,08,09,15,48,23.20
2013,08,09,15,49,23.20
2013,08,09,15,50,23.10
2013,08,09,15,51,23.10
2013,08,09,15,52,23.10
2013,08,09,15,53,23.00
2013,08,09,15,54,22.90
2013,08,09,15,55,22.90
2013,08,09,15,56,22.90
2013,08,09,15,57,22.90
2013,08,09,15,58,22.80
2013,08,09,15,59,22.80
2013,08,09,16,00,22.80
2013,08,09,16,01,22.80
2013,08,09,16,02,22.80
2013,08,09,16,03,22.80
2013,08,09,16,04,22.90
2013,08,09,16,05,23.00
2013,08,09,16,06,23.10
2013,08,09,16,07,23.20
2013,08,09,16,08,23.20
2013,08,09,16,09,23.30
2013,08,09,16,10,23.30
2013,08,09,16,11,23.40
2013,08,09,16,12,23.40
2013,08,09,16,13,23.50
2013,08,09,16,14,23.60
2013,08,09,16,15,23.60
2013,08,09,16,16,23.70
2013,08,09,16,17,23.70
2013,08,09,16,18,23.70
2013,08,09,16,19,23.70
2013,08,09,16,20,23.70
2013,08,09,16,21,23.60
2013,08,09,16,22,23.50
2013,08,09,16,23,23.30
2013,08,09,16,24,23.30
2013,08,09,16,25,23.30
2013,08,09,16,26,23.30
2013,08,09,16,27,23.40
2013,08,09,16,28,23.50
2013,08,09,16,29,23.60
2013,08,09,16,30,23.70
2013,08,09,16,31,23.70
2013,08,09,16,32,23.70
2013,08,09,16,33,23.70
2013,08,09,16,34,23.70
2013,08,09,16,35,23.70
2013,08,09,16,36,23.60
2013,08,09,16,37,23.40
2013,08,09,16,38,23.40
2013,08,09,16,39,23.40
2013,08,09,16,40,23.40
2013,08,09,16,41,23.40
2013,08,09,16,42,23.40
2013,08,09,16,43,23.50
2013,08,09,16,44,23.60
2013,08,09,16,45,23.60
2013,08,09,16,46,23.60
2013,08,09,16,47,23.70
2013,08,09,16,48,23.70
2013,08,09,16,49,23.70
2013,08,09,16,50,23.60
2013,08,09,16,51,23.60
2013,08,09,16,52,23.40
2013,08,09,16,53,23.40
2013,08,09,16,54,23.30
2013,08,09,16,55,23.30
2013,08,09,16,56,23.30
2013,08,09,16,57,23.30
2013,08,09,16,58,23.30
2013,08,09,16,59,23.30
2013,08,09,17,00,23.30
2013,08,09,17,01,23.30
2013,08,09,17,02,23.30
2013,08,09,17,03,23.30
2013,08,09,17,04,23.20
2013,08,09,17,05,23.10
2013,08,09,17,06,23.10
2013,08,09,17,07,23.10
2013,08,09,17,08,23.10
2013,08,09,17,09,23.10
2013,08,09,17,10,23.10
2013,08,09,17,11,23.20
2013,08,09,17,12,23.30
2013,08,09,17,13,23.30
2013,08,09,17,14,23.40
2013,08,09,17,15,23.40
2013,08,09,17,16,23.40
2013,08,09,17,17,23.50
2013,08,09,17,18,23.60
2013,08,09,17,19,23.70